Regional Weather Roundup
Issued by NWS

Home | Current Version | Previous Version | Text Only | Print | Product List | Glossary On
Versions: 1 2 3 4 5 6 7 8 9 10 11 12 13 14 15 16 17 18 19 20 21 22 23 24 25 26 27 28 29 30 31 32 33 34 35 36 37 38 39 40 41 42 43 44 45 46 47 48 49 50
000
ASUS44 KMEG 261210
RWRTN
TENNESSEE HOURLY STATE WEATHER ROUNDUP
NATIONAL WEATHER SERVICE MEMPHIS TN
700 AM CDT FRI AUG 26 2016

TNZ002-004-019-021-049-052-054-088>092-261300-
WEST TENNESSEE

CITY           SKY/WX    TMP DP  RH WIND       PRES   REMARKS
MEMPHIS INTL   PTCLDY    77  73  87 CALM      30.09R
NWS MEMPHIS      N/A     75 N/A N/A MISG        N/A
JACKSON        PTCLDY    74  74 100 CALM      30.09R FOG
DYERSBURG      PTCLDY    75  72  88 MISG      30.10R
UNION CITY       N/A     72  72 100 CALM      30.09R VSB 1/2
PARIS          CLEAR     72  72 100 CALM      30.11S
LEXINGTON      CLEAR     73  73 100 CALM      30.10R
$$

TNZ008-025-027-028-033-062-065-066-261300-
NORTH MIDDLE TENNESSEE

CITY           SKY/WX    TMP DP  RH WIND       PRES   REMARKS
NASHVILLE      MOCLDY    75  74  96 CALM      30.12S FOG
CLARKSVILLE    PTCLDY    74  73  97 CALM      30.11R FOG
SMYRNA         CLEAR     75  75 100 MISG      30.12
COOKEVILLE     CLEAR     72  72 100 CALM      30.14S
CROSSVILLE     CLEAR     69  68  96 CALM      30.20R
$$

TNZ061-075-076-078-094-096-097-261300-
SOUTH MIDDLE TENNESSEE

CITY           SKY/WX    TMP DP  RH WIND       PRES   REMARKS
FAYETTEVILLE   CLEAR     75  73  94 N6        30.13R
TULLAHOMA      CLEAR     72  70  94 CALM      30.15R
WINCHESTER     CLEAR     72  72 100 CALM      30.13R
MCMINNVILLE    CLEAR     73  73 100 N3        30.15R
COLUMBIA       PTCLDY   N/A N/A N/A CALM      30.11R
SHELBYVILLE    CLEAR     73  73 100 N3        30.14R
$$

TNZ017-018-042-046-047-261300-
NORTHEAST TENNESSEE

CITY           SKY/WX    TMP DP  RH WIND       PRES   REMARKS
TRI CITIES     FOG       69  68  96 CALM      30.20R VSB 1/16
ELIZABETHTON   SUNNY     70  68  94 CALM      30.20R
$$

TNZ012-013-036-069-073-074-261300-
CENTRAL EAST TENNESSEE

CITY           SKY/WX    TMP DP  RH WIND       PRES   REMARKS
KNOXVILLE      MOSUNNY   74  71  91 N3        30.14R
GATLINBURG     SUNNY     70  68  94 CALM      30.15S
MORRISTOWN     SUNNY     72  70  94 NE3       30.17R
$$

TNZ083-085-099-261300-
SOUTHEAST TENNESSEE

CITY           SKY/WX    TMP DP  RH WIND       PRES   REMARKS
CHATTANOOGA    PTCLDY    75  72  90 NW5       30.12R
$$

SKY/WX REPORTED AS FAIR MEANS FEW OR NO CLOUDS BELOW
12 THOUSAND FEET.





USA.gov is the U.S. government's official web portal to all federal, state and local government web resources and services.